Holland, MI

11:01 PM EST on November 17, 2017 (GMT -0500)
Tulip City

Weather History for KBIV - April, 2014

Change the Weather History Date:

Friday, April 11, 2014

  Actual Average Record
Temperature  
Mean Temperature 49 °F 47 °F  
Max Temperature 64 °F 56 °F 80 °F (1977)
Min Temperature 33 °F 37 °F 17 °F (1973)
Degree Days  
Heating Degree Days 16 18  
Month to date heating degree days 232 224  
Since 1 July heating degree days 6516 5598  
Cooling Degree Days 0 0  
Month to date cooling degree days 0 0  
Year to date cooling degree days 0 0  
Moisture  
Dew Point 28 °F    
Average Humidity 55    
Maximum Humidity 89    
Minimum Humidity 21    
Precipitation  
Precipitation 0.00 in 0.10 in 1.60 in (2013)
Month to date precipitation 0.52 0.92  
Year to date precipitation 5.62 7.08  
Sea Level Pressure  
Sea Level Pressure 29.99 in    
Wind  
Wind Speed 5 mph (WSW)    
Max Wind Speed 16 mph    
Max Gust Speed 19 mph    
Visibility 10 miles    
Events      
T = Trace of Precipitation, MM = Missing Value Source: NWS Daily Summary

Daily Weather History Graph

Daily Weather History Graph

Search for Another Location

Airport or City:

Trip Planner

Search our weather history database for the weather conditions in past years. The results will help you decide how hot, cold, wet, or windy it might be!

Date:

Astronomy

Apr. 11, 2014 Rise Set
Actual Time 7:09 AM EDT 8:22 PM EDT
Civil Twilight 6:40 AM EDT 8:51 PM EDT
Nautical Twilight 6:05 AM EDT 9:26 PM EDT
Astronomical Twilight 5:29 AM EDT 10:03 PM EDT
Moon 4:57 PM EDT (4/11) 5:09 AM EDT (4/11)
Length of Visible Light 14h 10m
Length of Day
13h 12m
Waxing Gibbous, 87% of the Moon is Illuminated
Apr 11
Waxing Gibbous
Apr 15
Full
Apr 22
Last Quarter
Apr 29
New
May 6
First Quarter

Hourly Weather History & Observations

Time (EDT) Temp. Windchill Dew Point Humidity Pressure Visibility Wind Dir Wind Speed Gust Speed Precip Events Conditions
12:53 AM 44.1 °F 41.5 °F 33.1 °F 65% 29.93 in 10.0 mi WNW 4.6 mph - N/A   Clear
1:53 AM 45.0 °F 43.5 °F 32.0 °F 60% 29.88 in 10.0 mi WNW 3.5 mph - N/A   Clear
2:53 AM 41.0 °F 39.0 °F 30.9 °F 67% 29.96 in 10.0 mi WSW 3.5 mph - N/A   Clear
3:53 AM 39.9 °F 37.8 °F 30.9 °F 70% 29.98 in 10.0 mi WSW 3.5 mph - N/A   Clear
4:53 AM 36.0 °F - 30.0 °F 79% 29.99 in 10.0 mi Calm Calm - N/A   Clear
5:53 AM 35.1 °F - 30.9 °F 85% 30.00 in 10.0 mi Calm Calm - N/A   Clear
6:53 AM 35.1 °F - 30.0 °F 82% 30.01 in 10.0 mi Calm Calm - N/A   Clear
7:53 AM 34.0 °F - 30.0 °F 85% 30.03 in 10.0 mi Calm Calm - N/A   Clear
8:53 AM 44.1 °F - 36.0 °F 73% 30.04 in 10.0 mi Calm Calm - N/A   Clear
9:53 AM 53.1 °F - 32.0 °F 45% 30.05 in 10.0 mi Calm Calm - N/A   Clear
10:53 AM 59.0 °F - 24.1 °F 26% 30.03 in 10.0 mi SSW 6.9 mph - N/A   Clear
11:53 AM 61.0 °F - 23.0 °F 23% 29.99 in 10.0 mi WSW 9.2 mph - N/A   Clear
12:53 PM 62.1 °F - 23.0 °F 22% 29.97 in 10.0 mi WSW 5.8 mph - N/A   Clear
1:53 PM 63.0 °F - 24.1 °F 23% 30.01 in 10.0 mi SW 9.2 mph - N/A   Clear
2:53 PM 63.0 °F - 23.0 °F 22% 30.01 in 10.0 mi WSW 12.7 mph - N/A   Clear
3:53 PM 62.1 °F - 25.0 °F 24% 29.95 in 10.0 mi West 15.0 mph - N/A   Clear
4:53 PM 60.1 °F - 24.1 °F 25% 30.01 in 10.0 mi WSW 12.7 mph - N/A   Clear
5:53 PM 61.0 °F - 21.0 °F 21% 30.02 in 10.0 mi WSW 13.8 mph - N/A   Scattered Clouds
6:53 PM 61.0 °F - 25.0 °F 25% 30.00 in 10.0 mi WSW 10.4 mph - N/A   Mostly Cloudy
7:53 PM 57.0 °F - 25.0 °F 29% 30.00 in 10.0 mi Calm Calm - N/A   Clear
8:53 PM 55.0 °F - 21.9 °F 28% 30.01 in 10.0 mi Calm Calm - N/A   Mostly Cloudy
9:53 PM 50.0 °F - 28.9 °F 44% 30.01 in 10.0 mi ENE 3.5 mph - N/A   Mostly Cloudy
10:53 PM 46.9 °F - 30.0 °F 52% 29.96 in 10.0 mi Calm Calm - N/A   Mostly Cloudy
11:53 PM 46.9 °F - 30.0 °F 52% 30.02 in 10.0 mi Calm Calm - N/A   Clear